Time,TemperatureF,DewpointF,PressureIn,WindDirection,WindDirectionDegrees,WindSpeedMPH,WindSpeedGustMPH,Humidity,HourlyPrecipIn,Conditions,Clouds,dailyrainin,SolarRadiationWatts/m^2,SoftwareType,DateUTC
2013-08-28 10:14:00,84.0,45.0,-100.00,SE,129,2.0,8.0,26,0.00,,,0.00,548.000000,,2013-08-28 17:14:00,
2013-08-28 10:24:00,84.0,45.0,-100.00,SE,129,2.0,8.0,26,0.00,,,0.00,548.000000,,2013-08-28 17:24:00,
2013-08-28 10:52:00,83.0,47.0,-100.00,SSE,156,7.0,12.0,28,0.00,,,0.00,795.000000,,2013-08-28 17:52:00,
2013-08-28 11:02:00,83.0,47.0,-100.00,SSE,156,7.0,12.0,28,0.00,,,0.00,795.000000,,2013-08-28 18:02:00,
2013-08-28 11:12:00,83.0,47.0,-100.00,SSE,156,7.0,12.0,28,0.00,,,0.00,795.000000,,2013-08-28 18:12:00,
2013-08-28 11:21:00,83.0,47.0,-100.00,SSE,156,7.0,12.0,28,0.00,,,0.00,795.000000,,2013-08-28 18:21:00,
2013-08-28 11:53:00,84.0,46.0,-100.00,South,169,10.0,16.0,27,0.00,,,0.00,960.000000,,2013-08-28 18:53:00,
2013-08-28 12:02:00,84.0,46.0,-100.00,South,169,10.0,16.0,27,0.00,,,0.00,960.000000,,2013-08-28 19:02:00,
2013-08-28 12:12:00,84.0,46.0,-100.00,South,169,10.0,16.0,27,0.00,,,0.00,960.000000,,2013-08-28 19:12:00,
2013-08-28 12:21:00,84.0,46.0,-100.00,South,169,10.0,16.0,27,0.00,,,0.00,960.000000,,2013-08-28 19:21:00,
2013-08-28 14:22:00,88.0,44.0,-100.00,South,177,12.0,20.0,22,0.00,,,0.00,1116.000000,,2013-08-28 21:22:00,
2013-08-28 14:57:00,89.0,44.0,-100.00,SW,225,8.0,19.0,21,0.00,,,0.00,1085.000000,,2013-08-28 21:57:00,
2013-08-28 15:07:00,89.0,44.0,-100.00,SW,225,8.0,19.0,21,0.00,,,0.00,1085.000000,,2013-08-28 22:07:00,
2013-08-28 15:15:00,89.0,44.0,-100.00,SW,225,8.0,19.0,21,0.00,,,0.00,1085.000000,,2013-08-28 22:15:00,
2013-08-28 15:25:00,89.0,44.0,-100.00,SW,225,8.0,19.0,21,0.00,,,0.00,1085.000000,,2013-08-28 22:25:00,
2013-08-28 18:03:00,88.0,43.0,-100.00,SSW,213,14.0,24.0,21,0.00,,,0.00,462.000000,,2013-08-29 01:03:00,
2013-08-28 18:12:00,88.0,43.0,-100.00,SSW,213,14.0,24.0,21,0.00,,,0.00,462.000000,,2013-08-29 01:12:00,
2013-08-28 18:22:00,88.0,43.0,-100.00,SSW,213,14.0,24.0,21,0.00,,,0.00,462.000000,,2013-08-29 01:22:00,
2013-08-28 19:11:00,85.0,41.0,-100.00,SW,218,14.0,23.0,21,0.00,,,-99.99,300.000000,,2013-08-29 02:11:00,
2013-08-28 19:22:00,85.0,41.0,-100.00,SW,218,14.0,23.0,21,0.00,,,-99.99,300.000000,,2013-08-29 02:22:00,
2013-08-28 20:11:00,82.0,41.0,-100.00,SSW,211,15.0,23.0,23,0.00,,,0.00,49.000000,,2013-08-29 03:11:00,
2013-08-28 20:22:00,82.0,41.0,-100.00,SSW,211,15.0,23.0,23,0.00,,,0.00,49.000000,,2013-08-29 03:22:00,
2013-08-28 20:26:00,80.0,39.0,-100.00,SSW,213,8.0,20.0,23,0.00,,,0.00,0.000000,,2013-08-29 03:26:00,
2013-08-28 20:57:00,80.0,39.0,-100.00,SSW,213,8.0,20.0,23,0.00,,,0.00,0.000000,,2013-08-29 03:57:00,
2013-08-28 21:08:00,80.0,39.0,-100.00,SSW,213,8.0,20.0,23,0.00,,,0.00,0.000000,,2013-08-29 04:08:00,
2013-08-28 21:54:00,77.0,40.0,-100.00,SSW,204,12.0,15.0,27,0.00,,,0.00,0.000000,,2013-08-29 04:54:00,
2013-08-28 22:05:00,77.0,40.0,-100.00,SSW,204,12.0,15.0,27,0.00,,,0.00,0.000000,,2013-08-29 05:05:00,
2013-08-28 22:14:00,77.0,40.0,-100.00,SSW,204,12.0,15.0,27,0.00,,,0.00,0.000000,,2013-08-29 05:14:00,
2013-08-28 22:23:00,77.0,40.0,-100.00,SSW,204,12.0,15.0,27,0.00,,,0.00,0.000000,,2013-08-29 05:23:00,
2013-08-28 22:52:00,77.0,36.0,-100.00,SSW,209,12.0,18.0,23,0.00,,,0.00,0.000000,,2013-08-29 05:52:00,
2013-08-28 23:02:00,77.0,36.0,-100.00,SSW,209,12.0,18.0,23,0.00,,,0.00,0.000000,,2013-08-29 06:02:00,
2013-08-28 23:12:00,77.0,36.0,-100.00,SSW,209,12.0,18.0,23,0.00,,,0.00,0.000000,,2013-08-29 06:12:00,
2013-08-28 23:21:00,77.0,36.0,-100.00,SSW,209,12.0,18.0,23,0.00,,,0.00,0.000000,,2013-08-29 06:21:00,
2013-08-28 23:52:00,78.0,37.0,-100.00,SSW,208,14.0,19.0,23,0.00,,,0.00,0.000000,,2013-08-29 06:52:00,